Overview Statistics Trail Chart Weather Telemetry Raw packets
 

This is the latest recevied weather packets stored in our database for station/object R2AJV-13. If no packets are shown the sender has not sent any weather packets the latest 10 day(s).

<< 14 15 16 17 18 19 20 >>
Time Temp. Humidity Pressure Rain* Wind** Luminosity Snow
1788109265 15° C 99% 1004 hPa 2.79 mm - - -
1788108361 15° C 99% 1004.1 hPa 3.05 mm - - -
1788107450 15° C 98% 1004.2 hPa 3.05 mm - - -
1788106539 15° C 97% 1004.3 hPa 2.03 mm - - -
1788105629 15.56° C 95% 1004.3 hPa 1.27 mm - - -
1788104724 16.11° C 93% 1004.4 hPa 0.51 mm - - -
1788103874 16.11° C 95% 1004.4 hPa 0.25 mm - - -
1788102963 16.67° C 91% 1004.2 hPa 0 mm - - -
1788102053 17.22° C 88% 1004.3 hPa 0 mm - - -
1788101141 17.78° C 83% 1004.4 hPa 0 mm - - -
1788100240 18.33° C 79% 1004.4 hPa 0 mm - - -
1788099325 18.89° C 80% 1004.3 hPa 0 mm - - -
1788098476 19.44° C 78% 1004.5 hPa 0 mm - - -
1788097564 18.89° C 76% 1004.6 hPa 0 mm - - -
1788095748 18.89° C 73% 1004.7 hPa 0 mm - - -
1788094867 19.44° C 72% 1004.7 hPa 0 mm - - -
1788092140 20.56° C 64% 1005.2 hPa 0 mm - - -
1788091228 21.11° C 62% 1005.4 hPa 0 mm - - -
1788090324 21.11° C 59% 1005.4 hPa 0 mm - - -
1788089472 21.67° C 58% 1005.6 hPa 0 mm - - -
1788088562 22.22° C 59% 1005.7 hPa 0 mm - - -
1788087652 22.78° C 55% 1005.7 hPa 0 mm - - -
1788086741 22.22° C 55% 1006 hPa 0 mm - - -
1788085836 22.22° C 54% 1006 hPa 0 mm - - -
1788084925 22.78° C 54% 1006.2 hPa 0 mm - - -

* Rain latest hour (hover to see other rain measurements)
** Current wind speed in m/s (hover to see current wind gust speed)